Vorticity
7 5 4 7 7 6 7 6 6 5 4 4 4 4 4 5 5 6 6 6 6 5 6 6 5 5 5 5 5 5 5 4 4 4 4 4 4 4 4 4 4 5 5
8 4 6 6 7 6 9 7 6 6 5 4 4 4 5 5 5 6 6 6 6 6 6 6 6 6 6 6 6 6 4 5 4 3 3 3 3 3 3 4 4 4 4
7 5 6 6 7 7 8 6 5 6 5 4 4 5 5 6 6 5 5 6 6 6 6 6 7 6 7 6 6 6 6 4 3 4 4 4 4 3 4 4 4 5 5
5 6 6 6 8 6 7 7 6 5 5 4 5 5 5 6 5 5 5 5 5 6 6 5 6 6 6 7 7 7 6 6 5 4 5 5 5 4 4 4 5 5 5
12 4 4 8 8 6 7 7 6 5 5 5 5 5 5 5 5 5 5 5 5 5 5 5 5 5 5 5 5 6 7 7 7 6 6 5 5 5 5 5 5 5 5
-1 3 4 7 6 5 7 5 5 6 5 5 6 5 6 5 5 5 5 4 4 4 4 4 4 4 4 4 4 4 4 5 6 6 6 6 6 6 6 5 4 4 4
47 -1 0 6 6 7 6 7 6 5 6 5 5 6 4 4 5 5 5 4 4 4 4 4 4 4 3 4 4 4 4 4 5 6 6 6 6 7 6 6 6 6 5
7 1 3 2 6 6 7 7 6 6 4 6 5 5 6 5 5 6 5 5 4 4 4 4 4 4 4 4 4 4 5 5 5 6 6 6 6 7 7 8 8 8 7
-13 32 1 -2 3 4 8 7 5 6 6 6 7 4 5 5 6 5 5 4 4 4 4 4 4 4 5 5 4 5 5 5 5 5 5 6 7 7 6 7 8 8 9
33 14 -1 12 1 5 7 7 7 6 7 6 7 6 6 6 6 7 5 5 4 4 4 4 4 4 5 5 5 5 5 6 6 6 6 6 6 6 6 6 6 7 8
-5 29 1 -16 21 5 7 7 6 6 6 5 5 8 8 6 6 4 7 5 6 5 4 4 5 5 5 5 5 6 6 6 6 6 6 6 6 6 6 6 6 7 7
-12 25 13 11 -0 2 7 7 6 6 6 6 4 4 3 7 8 7 7 6 4 4 5 5 4 4 5 5 5 6 6 6 6 6 6 7 6 6 6 6 6 7 7
14 16 -8 -5 4 -30 12 7 6 6 6 6 6 4 4 2 2 4 4 6 6 5 5 4 5 5 5 5 5 5 6 6 6 6 6 7 7 7 6 6 6 6 6
-2 11 -4 43 -3 3 8 10 5 5 6 5 5 4 4 5 5 5 4 4 5 5 6 5 5 5 5 6 4 5 5 5 5 5 5 6 6 7 7 7 6 6 6
20 22 8 7 16 18 28 13 7 5 5 5 4 3 4 3 3 4 4 4 5 6 5 5 6 6 5 5 5 4 5 5 6 5 6 6 6 6 6 5 5 5 6
24 20 9 16 29 -30 43 36 4 6 4 5 5 3 3 4 4 4 4 5 4 5 6 5 6 5 5 4 5 5 5 5 6 5 6 6 6 6 5 6 5 5 5
32 14 -4 23 14 22 12 38 5 6 5 4 4 4 4 3 4 4 4 4 4 5 6 6 5 5 4 4 5 5 5 6 5 6 6 6 6 6 6 6 5 5 6
22 29 13 18 -3 20 -8 24 5 6 5 5 5 4 4 4 4 5 4 5 5 6 6 6 5 5 4 4 5 5 5 7 7 6 6 6 6 6 6 7 6 6 5
1 7 25 -3 5 19 22 26 -6 0 4 6 4 5 6 5 6 6 5 5 5 5 5 5 4 5 4 5 6 6 5 5 7 6 5 6 6 6 6 7 6 5 7
21 6 5 13 8 13 24 32 9 2 5 7 6 5 7 8 5 6 6 5 4 5 4 4 4 5 6 6 5 6 5 4 5 5 6 6 6 6 7 7 5 6 12
37 14 12 5 3 -10 23 36 -3 6 2 9 9 8 8 9 7 5 5 5 4 5 4 4 5 6 6 6 5 4 6 3 5 5 6 6 6 7 5 8 9 10 10
6 55 -17 -15 -11 11 23 24 22 -16 1 11 5 6 15 8 7 7 8 6 5 6 7 7 6 5 6 5 4 4 5 4 3 7 5 7 6 7 10 10 10 11 11
1 16 30 9 31 18 -3 35 15 5 0 11 4 14 24 12 10 8 7 8 7 8 6 7 5 5 4 3 3 5 4 4 6 7 7 7 13 11 9 5 8 7 8
8 2 -3 10 34 21 -2 30 19 -2 -19 -25 19 11 10 8 7 6 5 6 6 8 10 7 7 6 6 5 8 6 6 6 8 10 6 9 7 8 7 7 9 13 15
22 -8 2 4 8 35 33 45 25 13 23 46 3 8 13 16 14 16 20 20 15 15 15 14 12 14 13 14 13 10 9 7 7 7 9 5 8 7 10 5 11 18 15
12 14 21 19 8 9 4 -15 -4 11 -8 2 3 6 -1 -11 -10 2 9 16 18 13 11 11 7 9 10 10 10 10 10 11 8 8 9 8 10 7 8 7 13 15 11
Height
3124 3128 3132 3136 3140 3145 3149 3153 3157 3160 3163 3165 3169 3172 3175 3177 3178 3181 3182 3183 3184 3184 3186 3187 3187 3188 3187 3188 3187 3187 3184 3184 3185 3185 3184 3184 3184 3182 3180 3179 3178 3177 3175
3120 3124 3128 3132 3137 3140 3146 3151 3155 3158 3161 3163 3166 3169 3174 3176 3177 3179 3181 3183 3184 3184 3185 3186 3187 3188 3188 3188 3188 3188 3186 3184 3184 3184 3184 3183 3183 3182 3182 3180 3177 3176 3175
3115 3120 3124 3128 3133 3137 3142 3146 3150 3155 3159 3161 3164 3167 3170 3175 3176 3178 3179 3182 3183 3184 3184 3185 3187 3186 3187 3188 3186 3187 3187 3186 3184 3184 3183 3182 3183 3181 3181 3180 3178 3176 3173
3108 3114 3119 3124 3129 3133 3138 3143 3148 3151 3156 3159 3162 3165 3168 3171 3174 3176 3177 3181 3183 3182 3184 3184 3185 3185 3185 3186 3187 3187 3187 3186 3184 3184 3183 3181 3180 3180 3179 3177 3177 3175 3173
3102 3108 3115 3120 3124 3129 3135 3139 3143 3148 3154 3156 3160 3163 3166 3169 3172 3174 3175 3178 3181 3182 3182 3184 3184 3184 3185 3185 3185 3185 3185 3185 3184 3183 3182 3181 3179 3178 3177 3176 3174 3173 3170
3091 3101 3108 3114 3119 3124 3129 3134 3139 3144 3150 3153 3158 3160 3164 3166 3169 3171 3173 3176 3178 3180 3180 3183 3183 3183 3183 3184 3184 3184 3183 3183 3183 3182 3181 3179 3178 3176 3174 3172 3170 3169 3167
3082 3094 3101 3109 3114 3120 3126 3130 3136 3141 3146 3150 3154 3158 3160 3164 3167 3168 3171 3174 3175 3178 3178 3179 3181 3182 3181 3182 3183 3182 3181 3181 3180 3180 3179 3178 3176 3174 3172 3170 3168 3166 3164
3078 3088 3095 3102 3110 3116 3121 3126 3132 3137 3142 3147 3151 3155 3159 3162 3164 3166 3168 3172 3173 3174 3176 3177 3179 3178 3180 3179 3180 3180 3179 3178 3177 3177 3177 3176 3173 3171 3169 3167 3165 3163 3160
3073 3082 3089 3094 3103 3111 3118 3123 3127 3133 3139 3142 3148 3151 3155 3156 3161 3163 3166 3168 3171 3171 3173 3175 3176 3176 3178 3177 3177 3177 3177 3176 3175 3174 3173 3172 3171 3169 3166 3164 3161 3159 3155
3067 3074 3083 3086 3094 3105 3111 3118 3123 3130 3136 3141 3144 3148 3153 3156 3158 3161 3163 3165 3168 3169 3170 3171 3173 3174 3174 3174 3173 3174 3174 3173 3172 3171 3170 3168 3167 3165 3162 3160 3156 3154 3151
3063 3069 3076 3082 3087 3098 3105 3112 3118 3124 3131 3136 3140 3145 3150 3152 3154 3157 3160 3162 3165 3166 3167 3168 3169 3170 3170 3170 3170 3170 3170 3170 3169 3167 3166 3165 3163 3161 3158 3155 3152 3149 3145
3055 3062 3069 3077 3084 3092 3099 3107 3113 3119 3126 3131 3135 3139 3144 3147 3150 3153 3156 3158 3161 3163 3164 3165 3165 3165 3167 3166 3165 3166 3166 3165 3164 3163 3162 3161 3159 3156 3153 3150 3147 3143 3140
3046 3053 3060 3068 3077 3084 3094 3100 3106 3112 3120 3125 3131 3134 3138 3142 3145 3149 3151 3154 3157 3159 3161 3161 3163 3162 3162 3163 3161 3161 3162 3161 3160 3158 3157 3156 3154 3152 3149 3145 3141 3138 3135
3040 3046 3053 3060 3068 3076 3085 3093 3099 3106 3112 3118 3124 3128 3133 3137 3141 3144 3148 3150 3152 3154 3156 3157 3158 3159 3158 3158 3157 3156 3158 3157 3156 3154 3152 3150 3148 3147 3143 3141 3136 3132 3128
3029 3036 3043 3051 3060 3068 3074 3086 3092 3099 3105 3111 3117 3122 3127 3132 3136 3139 3142 3144 3146 3149 3150 3152 3153 3153 3153 3152 3154 3151 3152 3152 3150 3149 3148 3145 3142 3141 3138 3134 3129 3125 3121
3017 3023 3031 3041 3050 3058 3064 3074 3083 3091 3097 3103 3109 3115 3120 3125 3129 3134 3135 3139 3141 3143 3145 3147 3148 3148 3148 3146 3149 3147 3147 3146 3145 3142 3141 3140 3136 3134 3131 3127 3123 3118 3114
3009 3015 3024 3033 3041 3048 3057 3063 3073 3082 3088 3096 3103 3109 3115 3119 3123 3128 3130 3133 3135 3138 3139 3141 3142 3142 3142 3140 3143 3142 3141 3141 3139 3137 3135 3133 3130 3128 3124 3120 3115 3110 3106
3002 3008 3017 3026 3033 3040 3048 3054 3064 3073 3082 3089 3096 3102 3108 3113 3117 3121 3124 3127 3129 3131 3133 3134 3136 3135 3135 3134 3135 3136 3135 3134 3133 3131 3128 3126 3123 3121 3117 3113 3107 3102 3097
2996 3002 3010 3019 3025 3033 3039 3047 3055 3067 3076 3084 3091 3097 3102 3106 3110 3114 3118 3121 3123 3124 3126 3127 3128 3129 3128 3129 3129 3129 3128 3126 3126 3124 3121 3120 3116 3114 3110 3106 3099 3094 3088
2990 2997 3003 3011 3018 3025 3032 3039 3050 3061 3070 3078 3084 3089 3093 3099 3103 3108 3111 3113 3115 3117 3118 3120 3120 3121 3121 3122 3121 3121 3120 3118 3117 3116 3113 3112 3108 3106 3102 3099 3092 3086 3081
2986 2993 2999 3006 3012 3018 3027 3034 3044 3055 3064 3072 3076 3081 3086 3091 3097 3100 3102 3105 3106 3108 3110 3111 3112 3112 3112 3113 3112 3112 3112 3110 3109 3106 3106 3103 3099 3098 3095 3092 3084 3079 3073
2982 2987 2994 3001 3007 3014 3022 3030 3038 3047 3056 3062 3067 3074 3080 3084 3089 3091 3094 3097 3099 3100 3102 3103 3104 3104 3103 3104 3103 3103 3102 3101 3098 3097 3094 3096 3088 3087 3085 3084 3077 3071 3064
2978 2984 2990 2995 3001 3010 3016 3023 3032 3039 3047 3055 3061 3066 3071 3076 3080 3083 3086 3087 3090 3092 3093 3095 3094 3094 3095 3096 3093 3094 3092 3091 3089 3085 3081 3083 3079 3075 3072 3072 3068 3063 3056
2975 2980 2986 2991 2996 3004 3011 3017 3025 3033 3040 3047 3052 3059 3064 3069 3073 3075 3076 3079 3081 3084 3085 3085 3084 3085 3085 3086 3085 3083 3083 3080 3078 3075 3071 3066 3069 3064 3061 3062 3058 3054 3047
2970 2976 2982 2987 2993 2999 3005 3011 3019 3024 3031 3039 3045 3052 3058 3062 3064 3067 3069 3072 3073 3075 3075 3074 3075 3076 3076 3075 3074 3073 3072 3070 3067 3065 3062 3056 3055 3049 3049 3049 3052 3044 3037
2966 2970 2977 2983 2988 2994 3000 3006 3009 3016 3024 3031 3039 3046 3050 3054 3057 3059 3060 3062 3065 3066 3066 3067 3066 3066 3066 3065 3063 3063 3061 3060 3059 3055 3053 3048 3046 3039 3032 3031 3038 3033 3025